FW3092 Weather Reports


Display with metric or nautical units.
time (UTC)temp
F
wind
direction
speed
MPH
gust
MPH
rain 1hr
in
rain 24hr
in
rain mn
in
humidity
%
barometer
mb
20260508154546 37 329 2.0 4.0 0.00 0.03 0.03 90 955.6
20260508153046 37 322 0.0 4.0 0.00 0.03 0.03 90 955.3
20260508151547 37 341 0.0 6.0 0.01 0.03 0.03 90 955.4
20260508150100 37 30 0.0 2.0 0.02 0.03 0.03 89 954.9
20260508144547 37 350 0.0 5.0 0.02 0.03 0.03 89 955.2
20260508143048 37 334 0.0 3.0 0.03 0.03 0.03 88 955.0
20260508141544 38 285 1.0 8.0 0.02 0.02 0.02 88 955.2
20260508140044 38 289 2.0 7.0 0.01 0.01 0.01 87 955.0
20260508134538 39 314 0.0 4.0 0.01 0.01 0.01 86 954.8
20260508133041 40 260 4.0 9.0 0.00 0.00 0.00 85 954.7
20260508131535 40 254 4.0 8.0 0.00 0.00 0.00 85 954.6
20260508130035 41 182 2.0 4.0 0.00 0.00 0.00 85 954.4
20260508124533 41 176 2.0 7.0 0.00 0.00 0.00 85 953.8
20260508123034 41 218 3.0 6.0 0.00 0.00 0.00 86 954.0
20260508121531 40 242 0.0 4.0 0.00 0.00 0.00 87 954.2
20260508120030 39 281 0.0 1.0 0.00 0.00 0.00 88 954.2
20260508114534 38 281 0.0 1.0 0.00 0.00 0.00 88 954.1
20260508113044 38 281 0.0 0.0 0.00 0.00 0.00 88 954.2
20260508111526 37 281 0.0 2.0 0.00 0.00 0.00 88 954.4
20260508110026 37 281 0.0 0.0 0.00 0.00 0.00 88 954.4
20260508104524 36 281 0.0 2.0 0.00 0.00 0.00 88 954.1
20260508103023 36 281 0.0 2.0 0.00 0.00 0.00 88 954.2
20260508101528 36 280 1.0 4.0 0.00 0.00 0.00 88 954.3
20260508100025 36 283 1.0 4.0 0.00 0.00 0.00 87 954.3
20260508094517 36 284 0.0 3.0 0.00 0.00 0.00 87 954.4
20260508093016 36 275 0.0 2.0 0.00 0.00 0.00 87 954.3
20260508091516 36 355 0.0 5.0 0.00 0.00 0.00 87 954.1
20260508090012 36 283 1.0 4.0 0.00 0.00 0.00 86 954.2
20260508084511 36 296 0.0 3.0 0.00 0.00 0.00 86 953.9
20260508083009 37 294 1.0 4.0 0.00 0.00 0.00 85 954.1
20260508081505 38 319 0.0 3.0 0.00 0.00 0.00 85 953.8
20260508080004 39 294 1.0 4.0 0.00 0.00 0.00 84 953.8
20260508074510 39 249 0.0 10.0 0.00 0.00 0.00 84 953.5
20260508073108 39 279 5.0 9.0 0.00 0.00 0.00 84 953.5
20260508071601 39 241 8.0 12.0 0.00 0.00 0.00 83 953.5
20260508070101 39 242 8.0 11.0 0.00 0.00 0.00 82 953.3
20260508064606 39 246 4.0 7.0 0.00 0.00 0.00 81 953.5
20260508063052 39 254 1.0 3.0 0.00 0.00 0.00 79 953.5
20260508061559 40 254 2.0 5.0 0.00 0.00 0.00 79 953.3
20260508060051 40 255 4.0 7.0 0.00 0.00 0.00 78 953.5
20260508054620 40 281 0.0 6.0 0.00 0.01 0.00 78 953.5
20260508053048 40 242 4.0 7.0 0.00 0.01 0.00 77 953.4
20260508051547 40 234 3.0 5.0 0.00 0.01 0.00 76 953.4
20260508050045 40 237 3.0 7.0 0.00 0.01 0.00 75 953.6
20260508044544 40 226 4.0 8.0 0.00 0.03 0.00 75 953.8
20260508043048 41 223 5.0 9.0 0.00 0.03 0.00 73 953.8
20260508041536 41 296 0.0 3.0 0.00 0.03 0.00 70 953.5
20260508040037 41 299 0.0 3.0 0.00 0.03 0.00 70 953.4
20260508034533 41 298 2.0 4.0 0.00 0.04 0.03 72 953.4
20260508033033 41 296 1.0 3.0 0.00 0.04 0.03 73 953.5
20260508031530 40 42 0.0 0.0 0.00 0.04 0.03 73 953.4
20260508030031 40 42 0.0 0.0 0.00 0.04 0.03 73 953.3
20260508024529 41 71 0.0 2.0 0.00 0.04 0.03 71 953.0
20260508023028 41 109 0.0 2.0 0.00 0.04 0.03 70 952.9
20260508021528 41 110 0.0 1.0 0.00 0.04 0.03 69 953.0
20260508020027 41 110 0.0 2.0 0.00 0.04 0.03 68 953.0
20260508014527 42 110 0.0 1.0 0.00 0.04 0.03 67 953.0
20260508013027 43 110 0.0 2.0 0.00 0.04 0.03 66 952.7
20260508011532 43 67 1.0 3.0 0.00 0.04 0.03 65 952.7
20260508010030 44 309 1.0 3.0 0.00 0.04 0.03 65 952.8
20260508004535 45 142 1.0 9.0 0.00 0.04 0.03 64 952.9
20260508003025 45 297 2.0 4.0 0.00 0.04 0.03 64 952.6
20260508001529 46 38 0.0 5.0 0.00 0.04 0.03 63 952.4
20260508000023 47 308 1.0 5.0 0.00 0.04 0.03 61 952.3
20260507234531 47 335 0.0 3.0 0.00 0.04 0.03 60 952.3
20260507233026 48 12 1.0 6.0 0.00 0.04 0.03 59 952.3
20260507231522 48 296 2.0 5.0 0.00 0.04 0.03 58 952.2
20260507230021 48 99 2.0 8.0 0.00 0.04 0.03 59 951.9
20260507224524 48 286 3.0 8.0 0.00 0.04 0.03 58 952.1
20260507223020 49 318 1.0 9.0 0.00 0.04 0.03 58 952.2
20260507221521 49 5 4.0 12.0 0.00 0.04 0.03 58 952.0
20260507220018 50 304 2.0 9.0 0.00 0.04 0.03 57 952.0
20260507214524 50 262 3.0 8.0 0.00 0.04 0.03 56 952.1
20260507213015 51 291 3.0 10.0 0.00 0.04 0.03 55 952.4
20260507211516 52 273 4.0 10.0 0.00 0.04 0.03 55 952.3
20260507210015 51 41 3.0 12.0 0.00 0.04 0.03 56 952.3
20260507204514 52 5 7.0 13.0 0.00 0.04 0.03 57 952.2
20260507203014 51 300 5.0 13.0 0.00 0.04 0.03 53 952.2
20260507201517 53 269 6.0 11.0 0.00 0.04 0.03 53 952.2
20260507200012 53 271 8.0 15.0 0.00 0.09 0.03 51 952.2
20260507194511 53 258 6.0 12.0 0.00 0.09 0.03 55 952.5
20260507193016 51 9 3.0 9.0 0.00 0.09 0.03 58 952.6
20260507191510 50 300 3.0 10.0 0.00 0.09 0.03 57 952.7
20260507190007 51 53 3.0 9.0 0.00 0.10 0.03 54 952.7
20260507184507 52 315 2.0 13.0 0.00 0.10 0.03 54 952.8
20260507183008 52 323 4.0 13.0 0.00 0.10 0.03 56 953.0
20260507181600 51 290 7.0 14.0 0.00 0.10 0.03 56 953.1
20260507180107 49 342 5.0 14.0 0.00 0.10 0.03 57 952.9
20260507174630 49 309 6.0 14.0 0.00 0.11 0.03 55 953.1
20260507173055 50 247 3.0 11.0 0.00 0.11 0.03 56 953.2
20260507171609 50 313 4.0 11.0 0.00 0.11 0.03 58 953.4
20260507170054 50 272 4.0 10.0 0.00 0.11 0.03 57 953.3
20260507164554 50 296 4.0 12.0 0.00 0.11 0.03 61 953.5
20260507163048 49 53 5.0 12.0 0.00 0.11 0.03 59 953.7
20260507161551 49 286 7.0 17.0 0.00 0.11 0.03 59 953.6
20260507160111 50 291 3.0 11.0 0.00 0.11 0.03 58 953.8